Orbital Elements at Epoch 2459000.5 (2020-May-31.0) TDB
Reference: JPL 22 (heliocentric ecliptic J2000)
Element | Value | Uncertainty (1-sigma) | Units |
e | .08338330802642065 | 6.2157e-08 | |
a | 2.946562735536714 | 1.9471e-08 | au |
q | 2.700868587340283 | 1.8991e-07 | au |
i | 5.931390556195066 | 3.8295e-06 | deg |
node | 95.89794719816089 | 6.2112e-05 | deg |
peri | 256.6678196888711 | 6.6116e-05 | deg |
M | 196.930882432807 | 2.454e-05 | deg |
tp | 2459837.337600180805 (2022-Sep-14.83760018) | 0.00012878 | TDB |
period | 1847.446902022723 5.06 | 1.8312e-05 5.014e-08 | d yr |
n | .1948635165675641 | 1.9315e-09 | deg/d |
Q | 3.192256883733144 | 2.1095e-08 | au |
|
| | Orbit Determination Parameters
Additional Information
|